Regional Weather Roundup
Issued by NWS

Home | Current Version | Previous Version | Text Only | Print | Product List | Glossary On
Versions: 1 2 3 4 5 6 7 8 9 10 11 12 13 14 15 16 17 18 19 20 21 22 23 24 25 26 27 28 29 30 31 32 33 34 35 36 37 38 39 40 41 42 43 44 45 46 47 48 49 50
000
ASUS44 KEWX 070402
RWRTX
SOUTH TEXAS REGIONAL WEATHER ROUNDUP
NATIONAL WEATHER SERVICE AUSTIN/SAN ANTONIO TX
1000 PM CST FRI MAR 06 2015

NOTE: "FAIR" INDICATED FEW OR NO CLOUDS BELOW 12,000 FEET WITH NO
SIGNIFICANT WEATHER AND/OR OBSTRUCTIONS TO VISIBILITY.

* - THESE STATIONS ARE NOT NWS OR FAA STATIONS...AND ARE NOT SUBJECT
    TO NWS AND FAA QUALITY CONTROL.

TXZ171-172-183>190-070500-
TEXAS HILL COUNTRY AND EDWARDS PLATEAU

CITY           SKY/WX    TMP DP  RH WIND       PRES   REMARKS
JUNCTION       CLOUDY    49  26  41 SW5       30.42R WCI  47
*LLANO         CLEAR     41  28  60 SE6       30.49R WCI  37
BURNET         CLEAR     41  27  57 S3        30.48R
*HORSESHOE BAY CLEAR     41  28  60 SE3       30.46S
*KERRVILLE     CLOUDY    44  29  55 SE6       30.44S WCI  41
*FREDERICKSBRG PTCLDY    41  29  60 CALM      30.43S
*ROCKSPRINGS   CLOUDY    45  21  39 S7        30.44R WCI  41
*BOERNE STAGE  CLOUDY    41  32  70 CALM      30.46F
*CASTROVILLE   MOCLDY    47  33  58 CALM      30.47F
HONDO          CLOUDY    48  31  51 S3        30.48S
*UVALDE        CLOUDY    47  29  50 SW3       30.47S
DEL RIO        CLOUDY    50  21  32 SE12      30.43S WCI  46
LAUGHLIN AFB   NOT AVBL
CARRIZO SPRGS  CLOUDY    48  27  43 CALM      30.47R
$$

TXZ173-191>194-202-209-217>225-228-070500-
CENTRAL AND SOUTH CENTRAL TEXAS

CITY           SKY/WX    TMP DP  RH WIND       PRES   REMARKS
GEORGETOWN     PTCLDY    36  27  69 CALM      30.48R
AUSTIN/BERGSTM PTCLDY    35  28  75 CALM      30.48S
AUSTIN/MABRY   PTCLDY    44  28  53 NE5       30.48S WCI  42
*AUSTIN/EXEC   CLEAR     43  27  52 CALM      30.48S
*LAGO VISTA    CLEAR     41  29  62 E5        30.46S WCI  38
SAN MARCOS     PTCLDY    41  25  52 NE5       30.48S WCI  38
NEW BRAUNFELS  MOCLDY    45  30  55 E3        30.46S
RANDOLPH AFB   MOCLDY    44  29  56 S2        30.46S
PT SAN ANTONIO NOT AVBL
SAN ANTONIO    MOCLDY    49  30  48 SE5       30.46S WCI  47
STINSON FIELD  CLOUDY    49  31  49 SE3       30.45F
*PLEASANTON    CLOUDY    51  30  45 CALM      30.47S
*LA GRANGE     PTCLDY    42  31  63 CALM      30.48R
*GIDDINGS      PTCLDY    36  29  76 CALM      30.52R
*GONZALES      PTCLDY    46  33  61 CALM      30.48S
$$

TXZ163>164-176>182-195>201-210>213-226-227-235-070500-
SOUTHEAST TEXAS

CITY           SKY/WX    TMP DP  RH WIND       PRES   REMARKS
COLLEGE STN    PTCLDY    44  23  43 NE3       30.49S
*BRYAN         PTCLDY    39  25  56 E3        30.50R
*CALDWELL      PTCLDY    37  30  75 CALM      30.52R
*CROCKETT      PTCLDY    36  34  93 CALM      30.53R
*BRENHAM       PTCLDY    38  32  77 CALM      30.50R
HUNTSVILLE     PTCLDY    38  29  70 CALM      30.49S
CONROE         PTCLDY    33  29  85 CALM      30.50S
HOUSTON BUSH   PTCLDY    40  26  57 CALM      30.49S
HOUSTON HOBBY  MOCLDY    45  28  51 CALM      30.48F
*HOUSTON SW AP CLEAR     47  43  88 CALM      30.51R
PEARLAND       CLEAR     41  31  67 CALM      30.50F
HOUSTON HOOKS  CLEAR     39  31  72 CALM      30.49S
ELLINGTON FLD  PTCLDY    46  25  42 CALM      30.50S
SUGAR LAND     CLEAR     39  30  70 CALM      30.49S
*HOUSTON EXEC  CLEAR     39  28  65 NE3       30.50S
*CLEVELAND MUN CLEAR     34  34 100 CALM      30.51S
*WHARTON       CLOUDY    46  38  73 CALM      30.50S
*COLUMBUS      CLOUDY    42  34  72 CALM      30.48F
$$

TXZ214>216-236>238-070500-
THE UPPER TEXAS COAST

CITY           SKY/WX    TMP DP  RH WIND       PRES   REMARKS
*ORANGE        PTCLDY    37  34  87 CALM      30.52R
PORT ARTHUR    PTCLDY    41  29  62 N3        30.50R
GALVESTON      CLEAR     46  29  51 CALM      30.50S
ANGLETON       CLOUDY    44  36  73 CALM      30.49S
*BAY CITY      CLOUDY    49  37  63 CALM      30.49F
PALACIOS       CLOUDY    49  35  58 CALM      30.50F
$$

TXZ229>234-239>247-070500-
TEXAS COASTAL BEND AND RIO GRANDE PLAINS

CITY           SKY/WX    TMP DP  RH WIND       PRES   REMARKS
VICTORIA       CLOUDY    50  36  58 E3        30.49S
*BEEVILLE      CLOUDY    48  33  56 CALM      30.47F
ROCKPORT       CLOUDY    47  30  51 CALM      30.48F
*PORT ARANSAS  CLOUDY    47  29  50 CALM      30.48S
*PORT LAVACA   CLOUDY    47  35  63 S6        30.49F WCI  45
*INGLESIDE     CLOUDY    49  33  54 SE8       30.48F WCI  45
CORPUS CHRISTI CLOUDY    47  30  51 SE6       30.48S WCI  44
CORPUS NAS     CLOUDY    48  31  51 CALM      30.49R
*ROBSTOWN      NOT AVBL
ALICE          CLOUDY    48  29  47 SW5       30.50R WCI  46
KINGSVILLE NAS CLOUDY    47  33  58 SW5       30.51R WCI  45
COTULLA        CLOUDY    50  23  34 S3        30.49R
*FAITH RANCH   CLOUDY    50  19  29 SE9       30.48R WCI  46
LAREDO         CLOUDY    48  24  39 E7        30.50F WCI  45
$$

TXZ248>255-070500-
DEEP SOUTH TEXAS

CITY           SKY/WX    TMP DP  RH WIND       PRES   REMARKS
BROWNSVILLE    CLOUDY    48  39  71 N7        30.48S WCI  45
PORT ISABEL    CLOUDY    48  41  76 N7        30.48R WCI  45
*SOUTH PADRE   CLOUDY    50  43  76 N12       30.46F WCI  46
HARLINGEN      PTCLDY    44  34  67 N6        30.49F WCI  41
*HEBBRONVILLE  CLOUDY   N/A N/A N/A CALM      30.50R
MCALLEN        PTCLDY    47  30  51 NE6       30.51R WCI  44
*WESLACO       PTCLDY    46  33  60 CALM      30.51R
FALFURRIAS     CLOUDY    44  28  51 CALM      30.51R
EDINBURG       PTCLDY    45  31  58 CALM      30.51R
*ZAPATA        PTCLDY    46  20  35 E3        30.48S
$$

TXZ213>215-236>238-242>244-246-247-251-254-255-070500-
CMAN STATIONS

STATION/POSITION TIME  TEMP    WIND        PRES    WAVE
                       AIR SEA DIR/SP/G            HT/PER
                 (UTC) (F)     (DEG/KT/KT) (MB)    (FT/S)
$$

GMZ080-GMZ150>470-070500-
OFFSHORE BUOY REPORTS

STATION/POSITION TIME  TEMP    WIND        PRES    WAVE
                       AIR SEA DIR/SP/G            HT/PER
                 (UTC) (F)     (DEG/KT/KT) (MB)    (FT/S)
$$


USA.gov is the U.S. government's official web portal to all federal, state and local government web resources and services.